Location: Unspecified
(0.0000°N, 0.0000°E)
Time: 16:51:39
(UTC+00:00)

Vanguard 2 Rocket - Visible Passes

Search period start: 12 April 2021 00:00
Search period end: 22 April 2021 00:00
Orbit: 554 x 3326 km, 32.9° (Epoch: 11 April)

Date Brightness Start Highest point End Pass type
(mag) Time Alt. Az. Time Alt. Az. Time Alt. Az.
12 Apr 10.3 18:29:11 10° NNW 18:33:33 11° N 18:37:26 10° N visible
12 Apr 9.8 20:49:30 10° NNW 20:53:07 13° N 20:53:07 13° N visible
13 Apr 9.8 19:47:37 10° NNW 19:52:03 12° N 19:55:47 10° NNE visible
13 Apr 10.2 22:02:30 10° NNW 22:02:38 10° NNW 22:02:38 10° NNW visible
14 Apr 10.2 18:43:59 10° NNW 18:49:44 13° N 18:54:35 10° NNE visible
14 Apr 9.6 21:01:26 10° NNW 21:06:23 19° N 21:06:23 19° N visible
15 Apr 9.5 19:59:47 10° NNW 20:07:38 18° NNE 20:10:09 17° NNE visible
15 Apr 10.2 22:15:33 10° NW 22:15:57 11° NW 22:15:57 11° NW visible
16 Apr 9.9 18:57:18 10° NNW 19:05:42 16° N 19:12:08 10° NE visible
16 Apr 9.4 21:14:10 10° NW 21:19:43 25° NNW 21:19:43 25° NNW visible
17 Apr 9.1 20:12:26 10° NNW 20:22:54 27° NNE 20:23:30 27° NNE visible
17 Apr 10.3 22:29:12 10° NW 22:29:18 10° NW 22:29:18 10° NW visible
18 Apr 9.5 19:10:15 10° NNW 19:21:17 23° NNE 19:27:18 15° NE visible
18 Apr 9.4 21:27:23 10° NW 21:33:06 29° NW 21:33:06 29° NW visible
19 Apr 9.9 18:07:29 10° NNW 18:18:58 20° NNE 18:27:32 10° NE visible
19 Apr 8.7 20:25:24 10° NW 20:36:56 42° NNE 20:36:56 42° NNE visible
20 Apr 9.0 19:23:12 10° NW 19:36:30 34° NNE 19:40:46 26° ENE visible
20 Apr 9.5 21:41:08 10° WNW 21:46:35 28° WNW 21:46:35 28° WNW visible
21 Apr 9.7 18:20:43 10° NNW 18:34:33 28° NNE 18:44:01 10° ENE visible
21 Apr 8.4 20:38:45 10° NW 20:50:27 59° NNW 20:50:27 59° NNW visible
